This demonstration page uses our WeatherBlox Daily Observations layout. Learn more.

Left ArrowRight Arrow

Hourly Observations for April 27, 2021

Temp ( °F °C ) Dew Point ( °F °C ) Humidity (%) Winds ( mph kmh ) Pressure ( in mb ) Visibility ( mi km ) Precip ( " mm )
12:53 am 00:53 Clear 68 20 56 13.3 65 65 S 15 24 29.41 996 10 16 0.00 0.00
1:53 am 01:53 Clear 66 18.9 57 13.9 73 73 S 15 24 29.40 996 10 16 0.00 0.00
2:53 am 02:53 Clear 65 18.3 57 13.9 76 76 S 15 24 29.38 995 10 16 0.00 0.00
3:53 am 03:53 Clear 64 17.8 57 13.9 78 78 S 9 15 29.37 995 10 16 0.00 0.00
4:53 am 04:53 Clear 62 16.7 55 12.8 78 78 S 6 9 29.40 996 10 16 0.00 0.00
5:53 am 05:53 Clear 53 11.7 49 9.4 86 86 N 5 7 29.43 997 10 16 0.00 0.00
6:53 am 06:53 Sunny 53 11.7 51 10.6 93 93 ENE 3 6 29.48 998 7 11 0.00 0.00
7:53 am 07:53 Sunny with Mist and Fog 58 14.4 55 12.8 90 90 N 8 13 29.52 1000 4 6 0.00 0.00
8:08 am 08:08 Partly Cloudy with Mist and Fog 57 13.9 55 12.8 93 93 N 13 20 29.57 1001 4 6 0.00 0.00
8:17 am 08:17 Mostly Cloudy with Mist and Fog 56 13.3 52 11.1 87 87 NNE 15 24 29.57 1001 5 8 0.00 0.00
8:53 am 08:53 Cloudy 54 12.2 48 8.9 80 80 N 14 22 29.56 1001 7 11 0.00 0.00
9:45 am 09:45 Cloudy 56 13.3 49 9.4 77 77 N 18 30 29.62 1003 7 11 0.00 0.00
9:53 am 09:53 Cloudy 57 13.9 49 9.4 74 74 N 16 26 29.62 1003 8 13 0.00 0.00
10:53 am 10:53 Cloudy 57 13.9 48 8.9 72 72 N 20 31 29.65 1004 8 13 0.00 0.00
11:10 am 11:10 Cloudy 56 13.3 47 8.3 72 72 N 22 35 29.67 1005 8 13 0.00 0.00
11:53 am 11:53 Cloudy 56 13.3 47 8.3 72 72 N 20 31 29.68 1005 7 11 0.00 0.00
12:38 pm 12:38 Cloudy 58 14.4 48 8.9 70 70 N 22 35 29.69 1005 7 11 0.00 0.00
12:51 pm 12:51 Cloudy 57 14 46 8 67 67 N 22 35 29.69 1005 7 11 0.00 0.00
12:53 pm 12:53 Cloudy 58 14.4 47 8.3 67 67 N 21 33 29.68 1005 7 11 0.00 0.00
1:53 pm 13:53 Cloudy 60 15.6 48 8.9 65 65 NNE 17 28 29.69 1005 8 13 0.00 0.00
2:53 pm 14:53 Mostly Cloudy 62 16.7 49 9.4 62 62 NNE 14 22 29.71 1006 8 13 0.00 0.00
3:25 pm 15:25 Cloudy 61 16 48 9 63 63 NNE 14 22 29.71 1006 7 11 0.00 0.00
3:53 pm 15:53 Cloudy 61 16.1 49 9.4 65 65 NE 14 22 29.73 1007 7 11 0.00 0.00
4:01 pm 16:01 Mostly Cloudy 61 16.1 49 9.4 65 65 NE 13 20 29.71 1006 7 11 0.00 0.00
4:41 pm 16:41 Mostly Cloudy with Haze 60 15.6 49 9.4 67 67 NE 10 17 29.73 1007 6 10 0.00 0.00
4:53 pm 16:53 Cloudy 60 15.6 48 8.9 65 65 NNE 13 20 29.74 1007 7 11 0.00 0.00
5:53 pm 17:53 Mostly Cloudy 60 15.6 48 8.9 65 65 NNE 13 20 29.77 1008 7 11 0.00 0.00
6:09 pm 18:09 Partly Cloudy 60 15.6 48 8.9 65 65 NNE 14 22 29.74 1007 7 11 0.00 0.00
6:53 pm 18:53 Sunny 58 14.4 47 8.3 67 67 NNE 15 24 29.77 1008 8 13 0.00 0.00
7:53 pm 19:53 Mostly Sunny 57 13.9 47 8.3 69 69 NE 16 26 29.78 1009 8 13 0.00 0.00
8:53 pm 20:53 Cloudy 57 13.9 47 8.3 69 69 ENE 12 19 29.82 1010 9 14 0.00 0.00
9:27 pm 21:27 Partly Cloudy 56 13.3 47 8.3 72 72 NE 13 20 29.81 1010 9 14 0.00 0.00
9:53 pm 21:53 Clear 55 12.8 47 8.3 74 74 NE 13 20 29.82 1010 9 14 0.00 0.00
10:53 pm 22:53 Mostly Clear 54 12.2 47 8.3 77 77 NNE 15 24 29.81 1009 8 13 0.00 0.00
11:29 pm 23:29 Mostly Cloudy with Thunderstorms 53 11.7 47 8.3 80 80 NE 18 30 29.83 1010 8 13 0.00 0.00
11:53 pm 23:53 Partly Cloudy 52 11.1 48 8.9 86 86 NE 13 20 29.83 1010 7 11 0.00 0.00

Powered by AerisWeather